Location: Córrego Montividiu
(13.2496°S, 48.8603°W)
Time: 10:49:16
(UTC+00:00)

Spelda - Pass Details

Date: 11 March 2026
Orbit: 290 x 28073 km, 9.9° (Epoch: 20 April)

Event Time Altitude Azimuth Distance (km) Brightness Sun altitude
Rises 22:44:19 0° 287° (WNW) 1,937 7.3 -18.3°
Reaches altitude 10° 22:45:45 10° 297° (WNW) 1,205 5.9 -18.7°
Maximum altitude 22:47:49 41° 12° (NNE) 636 3.4 -19.2°
Enters shadow 22:47:50 41° 13° (NNE) 637 3.4 -19.2°
